Content
SEND FEEDBACK

Daily
Averages
Monthly
Summary
United States of America

PYGA BEACH, GUAM


Home > North America > United States > Guam
Elevation: 6 meters     Latitude: 13 17N     Longitude: 144 39E

WEATHER
 
SELECT A DAY
Number of Records: 356,513;   Date Range: 1/1/95 - 12/18/14
 
SHARE

PRINT THIS DATA

[ ← Previous Day ]
WEATHER ALMANAC - 1 OCTOBER, 2013
[ Next Day → ]
[ °F ]   °C
Weather ElementAverageHighLow
Temperature26.5 °C30.5 °C (12:58 pm)23.7 °C (6:58 pm)
Dewpoint24.4 °C26 °C (12:13 am)22 °C (3:47 pm)
Humidity88.6 %100 % (12:13 am)76 % (12:58 pm)
Barometer1008.5 hPa1011.2 hPa (6:19 pm)1004.7 hPa (12:58 pm)
Wind Speed15.3 km/h42.6 km/h (6:19 pm)
Wind Gust62.9 km/h (6:19 pm)
Weather ElementAverage
Visibility14.6 km
Wind DirectionSW (229.7 °)

Weather ElementTotal
Precipitation0.76 mm
Cooling Degree Days8.8 (Base 18.3)
Growing Degree Days17.1 (Base 10)
Averaged from 70 records on 1 October, 2013
WEATHER CONDITIONS BREAKOUT
WIND DIRECTION BREAKOUT
WEATHER BY HOUR - 1 OCTOBER, 2013
[ °F ]   °C
Local TimeTemperatureDewpointHumidityBarometerVisibilityWind DirectionWind SpeedGust SpeedPrecipitationEventsConditions
12:13 AM26 °C26 °C100 %1010.2 hPa16.1 kmSW (220°)13 km/hScattered Clouds
12:29 AM27 °C26 °C94 %1009.8 hPa16.1 kmSW (220°)14.8 km/hThunderstormThunderstorm
12:44 AM27 °C25 °C89 %1010.2 hPa16.1 kmSW (220°)13 km/hThunderstormClear
12:47 AM27 °C26 °C94 %1010.2 hPa16.1 kmSSW (210°)13 km/hThunderstormThunderstorm
12:58 AM26.4 °C25.6 °C95 %1005.8 hPa16.1 kmWSW (240°)13 km/hThunderstormThunderstorm
1:10 AM26 °C26 °C100 %1009.8 hPa16.1 kmWSW (250°)13 km/hThunderstormPartly Cloudy
1:15 AM26 °C26 °C100 %1009.8 hPa16.1 kmWest (270°)9.3 km/hThunderstormThunderstorm
1:30 AM26 °C25 °C94 %1009.8 hPa16.1 kmNorth (360°)9.3 km/hThunderstormClear
1:58 AM25.4 °C25.1 °C98 %1005.4 hPa16.1 kmWest (260°)5.6 km/hClear
2:11 AM25 °C25 °C100 %1009.1 hPa16.1 kmWSW (240°)11.1 km/hThunderstormThunderstorm
2:26 AM26 °C25 °C94 %1008.8 hPa16.1 kmWSW (240°)14.8 km/hClear
2:58 AM25.6 °C24.6 °C94 %1005.1 hPa16.1 kmSW (230°)14.8 km/hClear
3:58 AM25.5 °C24.5 °C94 %1005.1 hPa16.1 kmSSW (210°)7.4 km/hScattered Clouds
4:58 AM25.6 °C24.9 °C96 %1005.1 hPa16.1 kmSW (220°)9.3 km/hScattered Clouds
5:58 AM25.7 °C25 °C96 %1005.8 hPa16.1 kmSSW (210°)9.3 km/hScattered Clouds
6:58 AM26.2 °C25.3 °C95 %1006.8 hPa16.1 kmSW (220°)11.1 km/hClear
7:58 AM27.1 °C25.4 °C90 %1007.5 hPa16.1 kmSSW (210°)7.4 km/hClear
8:58 AM28.3 °C25.3 °C84 %1007.5 hPa16.1 kmSSW (210°)11.1 km/hPartly Cloudy
9:58 AM29.5 °C25.8 °C80 %1007.5 hPa16.1 kmSouth (190°)18.5 km/hPartly Cloudy
10:48 AM30 °C26 °C79 %1010.8 hPa16.1 kmSouth (180°)18.5 km/hMostly Cloudy
10:58 AM30.1 °C25.8 °C78 %1006.8 hPa16.1 kmSouth (190°)14.8 km/hMostly Cloudy
11:08 AM30 °C26 °C79 %1010.5 hPa16.1 kmSouth (180°)18.5 km/hMostly Cloudy
11:18 AM30 °C26 °C79 %1010.5 hPa16.1 kmSouth (170°)18.5 km/hMostly Cloudy
11:23 AM30 °C26 °C79 %1010.5 hPa16.1 kmSouth (180°)20.4 km/hMostly Cloudy
11:33 AM30 °C26 °C79 %1010.2 hPa16.1 kmSouth (190°)20.4 km/hMostly Cloudy
11:58 AM30 °C25.6 °C77 %1005.8 hPa16.1 kmSouth (180°)22.2 km/hOvercast
12:08 PM30 °C26 °C79 %1009.8 hPa16.1 kmSouth (180°)22.2 km/hMostly Cloudy
12:13 PM30 °C26 °C79 %1009.8 hPa16.1 kmSouth (180°)22.2 km/hMostly Cloudy
12:18 PM30 °C26 °C79 %1009.5 hPa16.1 kmSouth (180°)22.2 km/hScattered Clouds
12:58 PM30.5 °C25.8 °C76 %1004.7 hPa16.1 kmSouth (180°)20.4 km/hMostly Cloudy
1:58 PM28.7 °C24.4 °C77 %1004.7 hPa16.1 kmSouth (180°)20.4 km/hPartly Cloudy
2:14 PM28 °C24 °C79 %1008.8 hPa16.1 kmSouth (180°)16.7 km/hThunderstormThunderstorm
2:17 PM28 °C24 °C79 %1008.8 hPa16.1 kmSouth (190°)14.8 km/hRain-ThunderstormLight Thunderstorms and Rain
2:36 PM28 °C25 °C84 %1008.8 hPa16.1 kmVariable9.3 km/hThunderstormThunderstorm
2:40 PM28 °C25 °C84 %1008.8 hPa16.1 kmSouth (180°)9.3 km/hRainLight Rain
2:48 PM27 °C24 °C84 %1008.8 hPa16.1 kmSouth (180°)11.1 km/hThunderstormScattered Clouds
2:54 PM27 °C23 °C79 %1008.8 hPa16.1 kmSouth (180°)13 km/hThunderstormThunderstorm
2:58 PM26.8 °C23.1 °C80 %1004.7 hPa8 kmSouth (180°)11.1 km/h0 mmThunderstorm
3:01 PM27 °C24 °C84 %1008.8 hPa6.4 kmSouth (180°)11.1 km/hRain-ThunderstormThunderstorms and Rain
3:06 PM26 °C24 °C89 %1008.8 hPa1.6 kmSSE (160°)7.4 km/hRain-ThunderstormThunderstorms and Rain
3:09 PM25 °C23 °C89 %1008.8 hPa1.3 kmSE (140°)7.4 km/hRainLight Rain
3:14 PM26 °C24 °C89 %1008.8 hPa1.3 kmSouth (170°)16.7 km/hRainLight Rain
3:17 PM25 °C24 °C94 %1008.8 hPa2.4 kmSSW (200°)7.4 km/hOvercast
3:22 PM26 °C25 °C94 %1008.8 hPa6.4 kmSouth (180°)9.3 km/hOvercast
3:27 PM26 °C24 °C89 %1008.8 hPa16.1 kmSouth (190°)9.3 km/hOvercast
3:32 PM26 °C24 °C89 %1009.1 hPa16.1 kmSSW (210°)7.4 km/hOvercast
3:42 PM26 °C24 °C89 %1009.1 hPa16.1 kmSouth (170°)14.8 km/hOvercast
3:47 PM24 °C22 °C89 %1009.1 hPa16.1 kmSE (140°)9.3 km/hOvercast
3:52 PM24 °C22 °C89 %1009.1 hPa16.1 kmSSE (150°)7.4 km/hMostly Cloudy
3:58 PM26.4 °C24.3 °C88 %1005.1 hPa16.1 kmSouth (180°)5.6 km/h0.76 mmMostly Cloudy
4:58 PM26.9 °C24.3 °C86 %1005.4 hPa16.1 kmSSW (200°)7.4 km/hPartly Cloudy
5:48 PM27 °C25 °C89 %1010.5 hPa16.1 kmWNW (300°)5.6 km/hMostly Cloudy
5:58 PM27.4 °C25.5 °C89 %1006.8 hPa16.1 kmNW (310°)9.3 km/hMostly Cloudy
6:19 PM26 °C24 °C89 %1011.2 hPa16.1 kmNW (320°)42.6 km/h62.9 km/hLight Drizzle
6:24 PM25 °C23 °C89 %1011.2 hPa14.5 kmNNW (330°)35.2 km/h62.9 km/hRainLight Rain
6:31 PM24 °C23 °C94 %1011.2 hPa12.9 kmNNW (330°)38.9 km/h50.1 km/hOvercast
6:32 PM24 °C23 °C94 %1011.2 hPa11.3 kmNNW (340°)42.6 km/h53.8 km/hRainRain
6:47 PM24 °C23 °C94 %1011.2 hPa14.5 kmNNW (330°)22.2 km/h46.3 km/hLight Drizzle
6:52 PM24 °C23 °C94 %1010.8 hPa14.5 kmNNW (340°)20.4 km/hRainLight Rain
6:57 PM24 °C23 °C94 %1010.8 hPa16.1 kmNNW (330°)20.4 km/hRainLight Rain
6:58 PM23.7 °C23 °C96 %1006.8 hPa16.1 kmNNW (330°)20.4 km/h0 mmRainLight Rain
7:03 PM24 °C23 °C94 %1010.5 hPa16.1 kmNNW (330°)22.2 km/hRainLight Rain
7:08 PM24 °C23 °C94 %1010.2 hPa16.1 kmNNW (340°)27.8 km/hLight Drizzle
7:11 PM24 °C22 °C89 %1010.2 hPa16.1 kmNNW (340°)27.8 km/hMostly Cloudy
7:21 PM24 °C23 °C94 %1010.5 hPa16.1 kmNNW (340°)24.1 km/hThunderstormMostly Cloudy
7:58 PM24.4 °C23 °C92 %1007.1 hPa16.1 kmNNW (340°)20.4 km/h0 mmMostly Cloudy
8:58 PM24.2 °C23.4 °C95 %1007.8 hPa16.1 kmNW (320°)9.3 km/hMostly Cloudy
9:58 PM24.8 °C23.1 °C90 %1007.8 hPa16.1 kmNW (320°)5.6 km/hScattered Clouds
10:58 PM24.3 °C22.8 °C91 %1007.8 hPa16.1 kmWest (280°)7.4 km/hMostly Cloudy
11:58 PM24.5 °C22.7 °C90 %1006.8 hPa16.1 kmWSW (250°)3.7 km/hClear
Hourly data recorded from PGUA, located 0 kilometers away from Pyga Beach, Guam







STORIES FROM OUR PARTNERS